When you browse on this site, cookies collect data to enhance your experience and personalize the content and advertising you see.
Visit our Privacy Policy to learn more. By continuing to use the site, you agree to this use of cookies and data.
  • In Hungary
  • List of Countries
  • For 7 days
  • Water Temperature
  • Satellite Maps
  • Weather Map
  • News
  • Weather Widgets
  • user-avatar
    Login

    Hourly Weather Ayometitla

    Today, 21 February, Thursday

    Time Temperature Precipitation Wind Pressure Humidity
    00:00 +14°C° 0 mm 1 mps 576 mmHg 45%
    01:00 +13°C° 0 mm 1 mps 575 mmHg 48%
    02:00 +12°C° 0 mm 2 mps 575 mmHg 51%
    03:00 +12°C° 0 mm 1 mps 575 mmHg 52%
    04:00 +12°C° 0 mm 1 mps 575 mmHg 53%
    05:00 +11°C° 0 mm 1 mps 574 mmHg 53%
    06:00 +13°C° 0 mm 1 mps 575 mmHg 48%
    07:00 +14°C° 0 mm 1 mps 576 mmHg 43%
    08:00 +16°C° 0 mm 2 mps 577 mmHg 37%
    09:00 +18°C° 0 mm 2 mps 578 mmHg 33%
    10:00 +20°C° 0 mm 3 mps 579 mmHg 28%
    11:00 +22°C° 0 mm 4 mps 580 mmHg 24%
    12:00 +22°C° 0 mm 4 mps 579 mmHg 21%
    13:00 +23°C° 0 mm 5 mps 579 mmHg 19%
    14:00 +25°C° 0 mm 5 mps 579 mmHg 17%
    15:00 +23°C° 0 mm 5 mps 578 mmHg 18%
    16:00 +22°C° 0 mm 5 mps 578 mmHg 19%
    17:00 +21°C° 0 mm 5 mps 577 mmHg 21%
    18:00 +19°C° 0 mm 3 mps 577 mmHg 25%
    19:00 +17°C° 0 mm 2 mps 577 mmHg 29%
    20:00 +16°C° 0 mm 1 mps 577 mmHg 33%
    21:00 +15°C° 0 mm 1 mps 577 mmHg 35%
    22:00 +15°C° 0 mm 1 mps 577 mmHg 37%
    23:00 +14°C° 0 mm 1 mps 577 mmHg 39%

    Tomorrow, 22 February, Friday

    Time Temperature Precipitation Wind Pressure Humidity
    00:00 +14°C° 0 mm 1 mps 576 mmHg 40%
    01:00 +13°C° 0 mm 1 mps 576 mmHg 42%
    02:00 +13°C° 0 mm 1 mps 575 mmHg 43%
    03:00 +12°C° 0 mm 1 mps 575 mmHg 44%
    04:00 +12°C° 0 mm 1 mps 575 mmHg 44%
    05:00 +12°C° 0 mm 1 mps 575 mmHg 45%
    06:00 +14°C° 0 mm 1 mps 576 mmHg 40%
    07:00 +14°C° 0 mm 0 mps 578 mmHg 35%
    08:00 +16°C° 0 mm 0 mps 579 mmHg 30%
    09:00 +20°C° 0 mm 1 mps 580 mmHg 25%
    10:00 +21°C° 0 mm 2 mps 581 mmHg 21%
    11:00 +24°C° 0 mm 2 mps 581 mmHg 16%
    12:00 +24°C° 0 mm 3 mps 581 mmHg 16%
    13:00 +25°C° 0 mm 3 mps 580 mmHg 16%
    14:00 +26°C° 0 mm 4 mps 580 mmHg 16%
    15:00 +23°C° 0 mm 4 mps 580 mmHg 19%
    16:00 +22°C° 0 mm 4 mps 579 mmHg 22%
    17:00 +21°C° 0 mm 4 mps 579 mmHg 25%
    18:00 +20°C° 0 mm 3 mps 579 mmHg 28%
    19:00 +18°C° 0 mm 2 mps 579 mmHg 32%
    20:00 +18°C° 0 mm 1 mps 578 mmHg 35%
    21:00 +16°C° 0 mm 1 mps 578 mmHg 36%
    22:00 +16°C° 0 mm 1 mps 578 mmHg 38%
    23:00 +14°C° 0 mm 0 mps 578 mmHg 40%

    Day after tomorrow, 23 February, Saturday

    Time Temperature Precipitation Wind Pressure Humidity
    00:00 +14°C° 0 mm 0 mps 578 mmHg 42%
    01:00 +14°C° 0 mm 1 mps 577 mmHg 44%
    02:00 +14°C° 0 mm 1 mps 577 mmHg 46%
    03:00 +13°C° 0 mm 1 mps 577 mmHg 47%
    04:00 +12°C° 0 mm 0 mps 577 mmHg 48%
    05:00 +11°C° 0 mm 0 mps 577 mmHg 50%
    06:00 +13°C° 0 mm 0 mps 578 mmHg 47%
    07:00 +14°C° 0 mm 0 mps 579 mmHg 44%
    08:00 +16°C° 0 mm 0 mps 580 mmHg 41%
    09:00 +20°C° 0 mm 1 mps 581 mmHg 37%
    10:00 +22°C° 0 mm 1 mps 581 mmHg 33%
    11:00 +24°C° 0 mm 1 mps 582 mmHg 29%
    12:00 +24°C° 0 mm 2 mps 581 mmHg 28%
    13:00 +25°C° 0 mm 3 mps 581 mmHg 27%
    14:00 +25°C° 0 mm 4 mps 580 mmHg 26%
    15:00 +24°C° 0.1 mm 3 mps 580 mmHg 30%
    16:00 +22°C° 0.1 mm 3 mps 580 mmHg 33%
    17:00 +21°C° 0.1 mm 2 mps 579 mmHg 37%
    18:00 +20°C° 0 mm 2 mps 580 mmHg 39%
    19:00 +19°C° 0 mm 2 mps 580 mmHg 41%
    20:00 +18°C° 0 mm 2 mps 581 mmHg 44%
    21:00 +17°C° 0 mm 2 mps 580 mmHg 46%
    22:00 +16°C° 0 mm 2 mps 580 mmHg 49%
    23:00 +15°C° 0 mm 2 mps 580 mmHg 51%

    24 February, Sunday

    Time Temperature Precipitation Wind Pressure Humidity
    00:00 +15°C° 0 mm 2 mps 579 mmHg 55%
    01:00 +14°C° 0 mm 2 mps 579 mmHg 58%
    02:00 +13°C° 0 mm 2 mps 578 mmHg 61%
    03:00 +13°C° 0 mm 2 mps 578 mmHg 66%
    04:00 +12°C° 0 mm 2 mps 578 mmHg 70%
    05:00 +12°C° 0 mm 2 mps 578 mmHg 74%
    06:00 +13°C° 0 mm 2 mps 579 mmHg 69%
    07:00 +13°C° 0 mm 3 mps 580 mmHg 65%
    08:00 +16°C° 0 mm 3 mps 581 mmHg 60%
    09:00 +17°C° 0 mm 3 mps 581 mmHg 54%
    10:00 +19°C° 0 mm 3 mps 582 mmHg 48%
    11:00 +20°C° 0 mm 2 mps 582 mmHg 42%
    12:00 +21°C° 0 mm 3 mps 582 mmHg 41%
    13:00 +21°C° 0 mm 3 mps 581 mmHg 40%
    14:00 +21°C° 0 mm 3 mps 580 mmHg 39%
    15:00 +21°C° 0.1 mm 3 mps 580 mmHg 41%
    16:00 +20°C° 0.1 mm 3 mps 580 mmHg 43%
    17:00 +20°C° 0.1 mm 3 mps 580 mmHg 44%
    18:00 +19°C° 0.1 mm 2 mps 580 mmHg 50%
    19:00 +18°C° 0.1 mm 2 mps 580 mmHg 55%
    20:00 +17°C° 0.1 mm 2 mps 580 mmHg 60%
    21:00 +18°C° 0.1 mm 1 mps 580 mmHg 64%
    22:00 +16°C° 0.1 mm 1 mps 580 mmHg 68%
    23:00 +15°C° 0.1 mm 1 mps 579 mmHg 72%

    25 February, Monday

    Time Temperature Precipitation Wind Pressure Humidity
    00:00 +15°C° 0 mm 1 mps 579 mmHg 75%
    01:00 +14°C° 0 mm 1 mps 578 mmHg 78%
    02:00 +13°C° 0 mm 1 mps 578 mmHg 82%
    03:00 +13°C° 0 mm 1 mps 578 mmHg 82%
    04:00 +13°C° 0 mm 1 mps 578 mmHg 83%
    05:00 +13°C° 0 mm 1 mps 578 mmHg 84%
    06:00 +14°C° 0 mm 1 mps 579 mmHg 76%
    07:00 +15°C° 0 mm 1 mps 580 mmHg 69%
    08:00 +16°C° 0 mm 1 mps 581 mmHg 62%
    09:00 +19°C° 0 mm 1 mps 581 mmHg 55%
    10:00 +20°C° 0 mm 2 mps 582 mmHg 48%
    11:00 +21°C° 0 mm 2 mps 582 mmHg 41%
    12:00 +23°C° 0.2 mm 2 mps 581 mmHg 40%
    13:00 +22°C° 0.2 mm 3 mps 581 mmHg 39%
    14:00 +22°C° 0.2 mm 3 mps 580 mmHg 37%
    15:00 +22°C° 0.4 mm 3 mps 580 mmHg 39%
    16:00 +21°C° 0.4 mm 3 mps 580 mmHg 41%
    17:00 +20°C° 0.4 mm 3 mps 580 mmHg 43%
    18:00 +19°C° 0.5 mm 2 mps 580 mmHg 48%
    19:00 +18°C° 0.5 mm 2 mps 580 mmHg 53%
    20:00 +18°C° 0.5 mm 1 mps 580 mmHg 58%
    21:00 +16°C° 0.3 mm 1 mps 579 mmHg 61%
    22:00 +16°C° 0.3 mm 1 mps 579 mmHg 63%
    23:00 +15°C° 0.3 mm 1 mps 579 mmHg 66%

    26 February, Tuesday

    Time Temperature Precipitation Wind Pressure Humidity
    00:00 +15°C° 0 mm 1 mps 579 mmHg 67%
    01:00 +14°C° 0 mm 1 mps 578 mmHg 67%
    02:00 +14°C° 0 mm 1 mps 578 mmHg 68%
    03:00 +14°C° 0 mm 1 mps 578 mmHg 69%
    04:00 +13°C° 0 mm 1 mps 578 mmHg 71%
    05:00 +12°C° 0 mm 0 mps 578 mmHg 72%
    06:00 +13°C° 0 mm 0 mps 579 mmHg 67%
    07:00 +15°C° 0 mm 0 mps 580 mmHg 62%
    08:00 +16°C° 0 mm 0 mps 581 mmHg 57%
    09:00 +20°C° 0.1 mm 1 mps 581 mmHg 51%
    10:00 +21°C° 0.1 mm 1 mps 581 mmHg 44%
    11:00 +23°C° 0.1 mm 2 mps 582 mmHg 38%
    12:00 +23°C° 0.1 mm 2 mps 581 mmHg 36%
    13:00 +24°C° 0.1 mm 2 mps 581 mmHg 34%
    14:00 +24°C° 0.1 mm 3 mps 581 mmHg 32%
    15:00 +23°C° 0.5 mm 2 mps 580 mmHg 36%
    16:00 +21°C° 0.5 mm 2 mps 580 mmHg 39%
    17:00 +21°C° 0.5 mm 1 mps 580 mmHg 43%
    18:00 +20°C° 0.8 mm 1 mps 580 mmHg 49%
    19:00 +18°C° 0.8 mm 2 mps 580 mmHg 56%
    20:00 +16°C° 0.8 mm 2 mps 580 mmHg 63%
    21:00 +16°C° 1.8 mm 3 mps 580 mmHg 67%
    22:00 +14°C° 1.8 mm 3 mps 579 mmHg 71%
    23:00 +13°C° 1.8 mm 4 mps 579 mmHg 75%
    Show more